Time,TemperatureF,DewpointF,PressureIn,WindDirection,WindDirectionDegrees,WindSpeedMPH,WindSpeedGustMPH,Humidity,HourlyPrecipIn,Conditions,Clouds,dailyrainin,SolarRadiationWatts/m^2,SoftwareType,DateUTC
2013-07-05 00:02:00,54.0,48.0,-100.00,East,80,1.0,6.0,81,0.00,,,0.00,0.000000,,2013-07-05 07:02:00,
2013-07-05 00:34:00,52.0,47.0,-100.00,ESE,113,1.0,5.0,84,0.00,,,0.00,0.000000,,2013-07-05 07:34:00,
2013-07-05 00:43:00,52.0,47.0,-100.00,ESE,113,1.0,5.0,84,0.00,,,0.00,0.000000,,2013-07-05 07:43:00,
2013-07-05 00:53:00,52.0,47.0,-100.00,ESE,113,1.0,5.0,84,0.00,,,0.00,0.000000,,2013-07-05 07:53:00,
2013-07-05 01:02:00,52.0,47.0,-100.00,ESE,113,1.0,5.0,84,0.00,,,0.00,0.000000,,2013-07-05 08:02:00,
2013-07-05 01:33:00,53.0,49.0,-100.00,West,272,2.0,7.0,86,0.00,,,0.00,0.000000,,2013-07-05 08:33:00,
2013-07-05 01:44:00,53.0,49.0,-100.00,West,272,2.0,7.0,86,0.00,,,0.00,0.000000,,2013-07-05 08:44:00,
2013-07-05 02:03:00,53.0,49.0,-100.00,West,272,2.0,7.0,86,0.00,,,0.00,0.000000,,2013-07-05 09:03:00,
2013-07-05 02:37:00,50.0,47.0,-100.00,West,273,2.0,7.0,90,0.00,,,0.00,0.000000,,2013-07-05 09:37:00,
2013-07-05 02:48:00,50.0,47.0,-100.00,West,273,2.0,7.0,90,0.00,,,0.00,0.000000,,2013-07-05 09:48:00,
2013-07-05 02:55:00,50.0,47.0,-100.00,West,273,2.0,7.0,90,0.00,,,0.00,0.000000,,2013-07-05 09:55:00,
2013-07-05 03:03:00,50.0,47.0,-100.00,West,273,2.0,7.0,90,0.00,,,0.00,0.000000,,2013-07-05 10:03:00,
2013-07-05 03:38:00,49.0,47.0,-100.00,NW,308,2.0,7.0,93,0.00,,,0.00,0.000000,,2013-07-05 10:38:00,
2013-07-05 03:47:00,49.0,47.0,-100.00,NW,308,2.0,7.0,93,0.00,,,0.00,0.000000,,2013-07-05 10:47:00,
2013-07-05 03:57:00,49.0,47.0,-100.00,NW,308,2.0,7.0,93,0.00,,,0.00,0.000000,,2013-07-05 10:57:00,
2013-07-05 04:03:00,49.0,47.0,-100.00,NW,308,2.0,7.0,93,0.00,,,0.00,0.000000,,2013-07-05 11:03:00,
2013-07-05 04:38:00,48.0,47.0,-100.00,West,261,2.0,8.0,95,0.00,,,0.00,0.000000,,2013-07-05 11:38:00,
2013-07-05 04:49:00,48.0,47.0,-100.00,West,261,2.0,8.0,95,0.00,,,0.00,0.000000,,2013-07-05 11:49:00,
2013-07-05 04:58:00,48.0,47.0,-100.00,West,261,2.0,8.0,95,0.00,,,0.00,0.000000,,2013-07-05 11:58:00,
2013-07-05 05:03:00,48.0,47.0,-100.00,West,261,2.0,8.0,95,0.00,,,0.00,0.000000,,2013-07-05 12:03:00,
2013-07-05 05:37:00,48.0,47.0,-100.00,ENE,70,2.0,7.0,95,0.00,,,0.00,0.000000,,2013-07-05 12:37:00,
2013-07-05 05:50:00,48.0,47.0,-100.00,ENE,70,2.0,7.0,95,0.00,,,0.00,0.000000,,2013-07-05 12:50:00,
2013-07-05 05:58:00,48.0,47.0,-100.00,ENE,70,2.0,7.0,95,0.00,,,0.00,0.000000,,2013-07-05 12:58:00,
2013-07-05 06:39:00,48.0,47.0,-100.00,WNW,296,2.0,8.0,95,0.00,,,0.00,7.000000,,2013-07-05 13:39:00,
2013-07-05 06:49:00,48.0,47.0,-100.00,WNW,296,2.0,8.0,95,0.00,,,0.00,7.000000,,2013-07-05 13:49:00,
2013-07-05 07:04:00,48.0,47.0,-100.00,WNW,296,2.0,8.0,95,0.00,,,0.00,7.000000,,2013-07-05 14:04:00,
2013-07-05 07:39:00,50.0,48.0,-100.00,East,86,2.0,7.0,92,0.00,,,0.00,53.000000,,2013-07-05 14:39:00,
2013-07-05 07:47:00,50.0,48.0,-100.00,East,86,2.0,7.0,92,0.00,,,0.00,53.000000,,2013-07-05 14:47:00,
2013-07-05 07:56:00,50.0,48.0,-100.00,East,86,2.0,7.0,92,0.00,,,0.00,53.000000,,2013-07-05 14:56:00,
2013-07-05 08:34:00,51.0,46.0,-100.00,NW,309,3.0,9.0,84,0.00,,,0.00,136.000000,,2013-07-05 15:34:00,
2013-07-05 08:43:00,51.0,46.0,-100.00,NW,309,3.0,9.0,84,0.00,,,0.00,136.000000,,2013-07-05 15:43:00,
2013-07-05 08:53:00,51.0,46.0,-100.00,NW,309,3.0,9.0,84,0.00,,,0.00,136.000000,,2013-07-05 15:53:00,
2013-07-05 09:01:00,51.0,46.0,-100.00,NW,309,3.0,9.0,84,0.00,,,0.00,136.000000,,2013-07-05 16:01:00,
2013-07-05 09:33:00,60.0,49.0,-100.00,SSW,208,3.0,10.0,68,0.00,,,0.00,535.000000,,2013-07-05 16:33:00,
2013-07-05 09:44:00,60.0,49.0,-100.00,SSW,208,3.0,10.0,68,0.00,,,0.00,535.000000,,2013-07-05 16:44:00,
2013-07-05 09:53:00,60.0,49.0,-100.00,SSW,208,3.0,10.0,68,0.00,,,0.00,535.000000,,2013-07-05 16:53:00,
2013-07-05 10:01:00,60.0,49.0,-100.00,SSW,208,3.0,10.0,68,0.00,,,0.00,535.000000,,2013-07-05 17:01:00,
2013-07-05 10:33:00,64.0,50.0,-100.00,ESE,123,3.0,12.0,60,0.00,,,0.00,752.000000,,2013-07-05 17:33:00,
2013-07-05 10:43:00,64.0,50.0,-100.00,ESE,123,3.0,12.0,60,0.00,,,0.00,752.000000,,2013-07-05 17:43:00,
2013-07-05 10:53:00,64.0,50.0,-100.00,ESE,123,3.0,12.0,60,0.00,,,0.00,752.000000,,2013-07-05 17:53:00,
2013-07-05 11:01:00,64.0,50.0,-100.00,ESE,123,3.0,12.0,60,0.00,,,0.00,752.000000,,2013-07-05 18:01:00,
2013-07-05 12:01:00,67.0,48.0,-100.00,WSW,239,4.0,13.0,51,0.00,,,-99.99,1023.000000,,2013-07-05 19:01:00,
2013-07-05 12:53:00,70.0,47.0,-100.00,SSW,212,3.0,13.0,44,0.00,,,0.00,1183.000000,,2013-07-05 19:53:00,
2013-07-05 13:53:00,73.0,47.0,-100.00,WNW,294,3.0,9.0,40,-99.99,,,0.00,1314.000000,,2013-07-05 20:53:00,
2013-07-05 14:34:00,73.0,49.0,-100.00,NNE,32,3.0,17.0,43,-99.99,,,0.00,1366.000000,,2013-07-05 21:34:00,
2013-07-05 14:43:00,73.0,49.0,-100.00,NNE,32,3.0,17.0,43,-99.99,,,0.00,1366.000000,,2013-07-05 21:43:00,
2013-07-05 16:32:00,75.0,48.0,-100.00,ENE,64,4.0,15.0,38,-99.99,,,-99.99,1086.000000,,2013-07-05 23:32:00,
2013-07-05 17:42:00,74.0,49.0,-100.00,WNW,288,4.0,12.0,41,-99.99,,,0.00,849.000000,,2013-07-06 00:42:00,
2013-07-05 18:33:00,72.0,48.0,-100.00,West,270,3.0,10.0,43,-99.99,,,0.00,704.000000,,2013-07-06 01:33:00,
2013-07-05 18:43:00,72.0,48.0,-100.00,West,270,3.0,10.0,43,-99.99,,,0.00,704.000000,,2013-07-06 01:43:00,
2013-07-05 18:53:00,72.0,48.0,-100.00,West,270,3.0,10.0,43,-99.99,,,0.00,704.000000,,2013-07-06 01:53:00,
2013-07-05 19:34:00,61.0,48.0,-100.00,SW,226,2.0,8.0,63,-99.99,,,0.00,280.000000,,2013-07-06 02:34:00,
2013-07-05 19:43:00,61.0,48.0,-100.00,SW,226,2.0,8.0,63,-99.99,,,0.00,280.000000,,2013-07-06 02:43:00,
2013-07-05 19:53:00,61.0,48.0,-100.00,SW,226,2.0,8.0,63,-99.99,,,0.00,280.000000,,2013-07-06 02:53:00,
2013-07-05 20:02:00,61.0,48.0,-100.00,SW,226,2.0,8.0,63,-99.99,,,0.00,280.000000,,2013-07-06 03:02:00,
2013-07-05 20:34:00,55.0,48.0,-100.00,NNW,332,1.0,5.0,76,0.00,,,0.00,81.000000,,2013-07-06 03:34:00,
2013-07-05 20:43:00,55.0,48.0,-100.00,NNW,332,1.0,5.0,76,0.00,,,0.00,81.000000,,2013-07-06 03:43:00,
2013-07-05 20:53:00,55.0,48.0,-100.00,NNW,332,1.0,5.0,76,0.00,,,0.00,81.000000,,2013-07-06 03:53:00,
2013-07-05 21:01:00,55.0,48.0,-100.00,NNW,332,1.0,5.0,76,0.00,,,0.00,81.000000,,2013-07-06 04:01:00,
2013-07-05 21:33:00,51.0,48.0,-100.00,North,2,1.0,5.0,88,0.00,,,0.00,10.000000,,2013-07-06 04:33:00,
2013-07-05 21:43:00,51.0,48.0,-100.00,North,2,1.0,5.0,88,0.00,,,0.00,10.000000,,2013-07-06 04:43:00,
2013-07-05 21:53:00,51.0,48.0,-100.00,North,2,1.0,5.0,88,0.00,,,0.00,10.000000,,2013-07-06 04:53:00,
2013-07-05 22:02:00,51.0,48.0,-100.00,North,2,1.0,5.0,88,0.00,,,0.00,10.000000,,2013-07-06 05:02:00,
2013-07-05 23:34:00,49.0,48.0,-100.00,East,80,0.0,2.0,97,-99.99,,,0.00,0.000000,,2013-07-06 06:34:00,
2013-07-05 23:43:00,49.0,48.0,-100.00,East,80,0.0,2.0,97,-99.99,,,0.00,0.000000,,2013-07-06 06:43:00,
2013-07-05 23:53:00,49.0,48.0,-100.00,East,80,0.0,2.0,97,-99.99,,,0.00,0.000000,,2013-07-06 06:53:00,